Regional Weather Roundup
Issued by NWS

Home | Current Version | Previous Version | Text Only | Print | Product List | Glossary Off
Versions: 1 2 3 4 5 6 7 8 9 10 11 12 13 14 15 16 17 18 19 20 21 22 23 24 25 26 27 28 29 30 31 32 33 34 35 36 37 38 39 40 41 42 43 44 45 46 47 48 49 50

000
ASUS44 KMEG 280510
RWRTN
TENNESSEE HOURLY STATE WEATHER ROUNDUP
NATIONAL WEATHER SERVICE MEMPHIS TN
1100 PM CST THU NOV 27 2014

TNZ002-004-019-021-049-052-054-088>092-280600-
WEST TENNESSEE

CITY           SKY/WX    TMP DP  RH WIND       PRES   REMARKS
MEMPHIS INTL   CLEAR     35  27  72 SE3       30.46F
NWS MEMPHIS      N/A     31 N/A N/A MISG        N/A
JACKSON        CLEAR     28  23  81 CALM      30.47F
DYERSBURG      CLEAR     28  16  59 SE3       30.48F
UNION CITY     CLEAR     25  21  86 CALM      30.45F
PARIS          CLEAR     21  18  86 CALM      30.45F
HUNTINGDON     CLEAR     23  20  89 CALM      30.46
LEXINGTON      CLEAR     25  21  86 CALM      30.45F
SAVANNAH       CLEAR     27  21  80 CALM      30.47F
$$

TNZ008-025-027-028-033-062-065-066-280600-
NORTH MIDDLE TENNESSEE

CITY           SKY/WX    TMP DP  RH WIND       PRES   REMARKS
NASHVILLE      PTCLDY    30  21  69 CALM      30.47F
CLARKSVILLE    CLOUDY    29  24  82 SE3       30.46F
COOKEVILLE     CLOUDY    28  21  74 NW3       30.42F
CROSSVILLE     CLOUDY    26  18  71 NW8       30.38S WCI  18
$$

TNZ061-075-076-078-094-096-097-280600-
SOUTH MIDDLE TENNESSEE

CITY           SKY/WX    TMP DP  RH WIND       PRES   REMARKS
FAYETTEVILLE   PTCLDY    27  19  74 MISG      30.44F
TULLAHOMA      MOCLDY    27  19  74 N7        30.44F WCI  19
WINCHESTER     CLOUDY    27  21  80 CALM      30.45F
MCMINNVILLE    PTCLDY    27  18  69 CALM      30.43F
COLUMBIA       CLEAR     25  25 100 CALM      30.44F
SHELBYVILLE    CLEAR     27  21  80 NW3       30.47F
$$

TNZ017-018-042-046-047-280600-
NORTHEAST TENNESSEE

CITY           SKY/WX    TMP DP  RH WIND       PRES   REMARKS
TRI CITIES     CLOUDY    30  21  69 NW9       30.34S WCI  22
ELIZABETHTON   CLOUDY    28  19  69 W5        30.32S WCI  23
$$

TNZ012-013-036-069-073-074-280600-
CENTRAL EAST TENNESSEE

CITY           SKY/WX    TMP DP  RH WIND       PRES   REMARKS
KNOXVILLE      CLOUDY    31  22  69 CALM      30.40S
OAK RIDGE      CLOUDY    33  19  56 CALM      30.42S
GATLINBURG     PTCLDY    27  21  80 CALM      30.39S
MORRISTOWN     PTCLDY    28  21  74 NW5       30.37S WCI  23
$$

TNZ083-085-099-280600-
SOUTHEAST TENNESSEE

CITY           SKY/WX    TMP DP  RH WIND       PRES   REMARKS
CHATTANOOGA    MOCLDY    33  21  61 N10       30.44S WCI  25
$$

SKY/WX REPORTED AS FAIR MEANS FEW OR NO CLOUDS BELOW
12 THOUSAND FEET.



USA.gov is the U.S. government's official web portal to all federal, state and local government web resources and services.